Location: Unspecified
(0.0000°N, 0.0000°E)
Time: 20:53:31
(UTC+01:00)

NOSS 3-3 (A) - Visible Passes

Search period start: 02 December 2016 00:00
Search period end: 12 December 2016 00:00
Orbit: 922 x 1291 km, 63.4° (Epoch: 25 November)

Date Brightness Start Highest point End Pass type
(mag) Time Alt. Az. Time Alt. Az. Time Alt. Az.
02 Dec 6.5 04:53:17 10° NNE 04:59:12 23° ENE 05:05:06 10° ESE visible
03 Dec 6.9 04:12:14 10° NE 04:14:25 11° ENE 04:16:36 10° E visible
03 Dec 4.6 05:57:19 10° NNW 06:05:20 85° WSW 06:13:21 10° SSE visible
04 Dec 5.1 05:13:11 11° N 05:20:40 57° ENE 05:28:29 10° SE visible
05 Dec 5.9 04:30:55 17° NNE 04:36:00 32° ENE 04:42:56 10° SE visible
05 Dec 5.3 06:19:41 10° NW 06:26:47 35° WSW 06:33:53 10° S visible
06 Dec 6.5 03:48:38 15° NE 03:51:16 18° ENE 03:56:15 10° ESE visible
06 Dec 4.6 05:36:09 19° NW 05:42:07 62° WSW 05:49:59 10° SSE visible
07 Dec 4.6 04:53:49 37° NNW 04:57:27 79° ENE 05:05:28 10° SSE visible
08 Dec 5.2 04:11:26 42° NE 04:12:48 46° ENE 04:20:21 10° SE visible
08 Dec 5.6 05:58:56 15° WNW 06:03:36 25° WSW 06:09:48 10° SSW visible
09 Dec 6.1 03:29:00 25° ENE 03:29:00 25° ENE 03:34:27 10° ESE visible
09 Dec 4.9 05:16:30 35° WNW 05:18:54 44° WSW 05:26:23 10° S visible
10 Dec 7.0 02:46:29 11° E 02:46:29 11° E 02:46:54 10° E visible
10 Dec 4.4 04:33:59 75° W 04:34:14 76° WSW 04:42:14 10° SSE visible
11 Dec 5.1 03:51:24 52° ESE 03:51:24 52° ESE 03:57:29 10° SSE visible
11 Dec 5.9 05:38:54 16° W 05:40:26 17° WSW 05:45:10 10° SSW visible
